Theta_e
321 315 315 314 311 314 312 306 299 297 299 293 287 293 295 294 295 295 295 297 299 299 297 300 305 307 305 305 306 304 301 309 306 300 301 311 323 331 337 335 339 341 341 342 345 347 349 348 349 348 349 349 348 347 347 347 345 344 344 343 343 341 340 340 339 338 337 340 342 343 345 346 346 345 343 341 338 337 337 337 337 337 339 339 341 342 341 341 340 339 337 340 339 339 338 338 338
317 314 314 314 314 315 310 300 293 291 290 289 290 288 292 292 295 295 296 296 297 302 298 305 307 307 305 304 302 308 305 310 306 314 314 325 334 335 337 336 339 340 341 342 344 346 348 349 348 349 349 349 348 347 347 346 345 345 344 343 342 342 341 340 341 340 340 341 341 345 347 346 346 345 342 340 339 338 338 339 338 338 338 338 338 340 340 341 340 340 338 337 336 336 337 338 338
317 316 320 315 314 307 304 301 300 285 292 289 287 290 292 294 294 295 296 295 296 298 305 307 305 302 303 303 304 303 303 317 311 319 325 332 328 332 336 338 339 341 341 343 346 347 348 348 347 349 349 349 348 348 347 347 346 345 344 344 342 341 341 340 339 341 341 342 342 342 344 345 345 345 343 340 338 338 337 336 337 338 338 339 341 342 341 342 342 341 340 339 339 338 338 338 338
317 315 316 314 313 304 300 294 291 288 289 286 285 289 290 293 294 294 294 294 302 301 300 302 303 301 304 300 304 309 309 314 320 323 323 327 331 335 337 338 340 342 343 345 346 347 348 347 346 349 349 348 348 348 348 347 344 344 344 344 343 342 342 341 339 338 338 343 344 345 345 344 345 343 340 339 338 337 336 339 338 338 339 342 342 342 341 341 342 341 340 340 339 338 338 339 339
315 318 312 309 307 305 295 291 289 288 292 286 294 290 291 291 296 293 298 293 298 296 297 299 306 307 306 305 307 307 305 317 320 325 327 331 331 337 338 339 340 341 342 344 346 347 348 344 346 347 349 348 348 348 347 347 345 344 345 344 344 342 341 340 339 339 340 339 341 346 346 345 345 344 341 338 338 337 337 336 337 337 337 337 339 339 339 339 339 340 340 339 339 338 338 338 338
312 309 309 310 306 305 297 294 293 292 293 289 292 296 291 292 295 293 298 297 297 296 297 297 304 306 308 311 311 308 312 319 324 322 327 330 333 338 338 339 340 341 343 345 346 347 349 342 345 346 349 349 349 348 347 347 346 344 344 344 343 343 342 341 341 341 341 340 343 345 345 344 344 342 340 338 337 337 336 336 336 336 337 338 339 339 339 340 341 339 339 339 339 338 338 337 338
315 305 304 306 301 301 296 291 289 287 291 290 295 292 293 291 294 295 298 301 299 297 295 300 303 305 306 304 311 314 315 320 325 327 327 331 336 338 339 339 339 340 343 344 346 346 347 342 346 348 348 348 348 347 347 347 346 346 345 344 344 343 342 342 342 341 341 340 344 343 342 342 343 342 340 336 335 335 335 335 336 336 336 337 337 338 341 341 340 339 339 339 339 338 338 338 338
312 311 304 298 294 294 290 286 288 287 295 289 291 293 293 293 293 299 298 299 298 299 299 297 298 301 300 308 308 315 314 318 325 324 325 334 337 338 339 339 338 340 342 344 345 345 345 341 345 346 347 348 348 347 347 347 346 345 344 344 344 343 343 342 342 342 341 340 340 341 341 342 342 342 339 337 335 334 335 336 337 336 335 336 338 338 337 338 338 338 338 339 340 338 338 338 338
305 305 301 299 293 289 285 291 290 288 289 289 291 291 301 294 294 298 297 295 296 296 296 303 300 299 296 305 307 313 318 319 321 321 330 336 336 338 338 338 338 339 341 344 345 345 346 341 343 346 346 348 348 347 347 347 346 346 345 344 343 343 343 343 342 341 340 340 339 339 342 342 341 340 339 337 335 334 335 335 336 335 335 335 336 335 337 337 337 337 337 337 337 337 337 337 337
304 303 299 296 294 294 285 288 292 293 291 292 293 297 294 293 294 296 296 297 298 296 300 295 297 299 300 303 307 314 321 317 321 329 334 336 337 337 337 337 339 339 340 342 344 344 346 345 340 342 343 346 347 347 347 346 346 345 345 344 344 344 343 342 342 341 341 340 340 339 338 339 338 336 336 336 334 335 335 335 336 334 334 334 335 336 336 336 337 338 337 337 337 337 336 337 337
299 297 297 296 287 287 290 289 286 289 292 291 291 291 294 293 294 292 294 298 293 298 297 296 301 300 303 303 309 313 315 318 326 328 333 337 337 337 336 338 339 340 339 342 343 344 345 346 342 339 342 342 345 346 347 347 346 345 345 345 344 344 343 343 342 341 341 340 339 338 338 337 336 335 335 335 334 334 335 335 334 334 334 335 336 335 336 336 337 337 337 337 337 336 336 336 336
298 296 295 287 289 291 290 289 287 288 290 290 298 294 294 294 293 296 295 298 296 296 298 298 303 303 302 299 306 314 315 321 326 331 334 337 337 337 336 337 339 340 341 342 343 344 345 346 346 342 338 338 341 343 344 345 346 345 345 345 344 344 343 343 342 341 340 339 339 338 337 336 336 335 336 335 334 334 335 335 335 334 334 334 336 335 336 336 337 337 337 336 336 335 336 336 336
296 294 292 290 290 289 287 288 290 293 289 292 297 296 293 295 297 295 293 295 293 297 298 297 300 303 300 301 303 308 319 325 323 330 334 337 337 337 336 337 338 339 340 342 342 343 344 345 346 346 341 334 335 337 339 340 342 345 345 345 344 344 344 343 342 341 340 339 338 338 337 338 338 336 335 335 335 334 334 335 336 334 334 334 335 336 337 337 336 336 336 335 335 336 336 336 335
297 295 295 293 286 286 288 290 286 293 290 295 291 293 294 296 296 292 294 296 294 296 298 296 304 301 302 299 304 307 317 321 325 328 334 335 335 336 336 337 338 339 340 341 341 342 344 344 345 345 345 343 345 339 334 337 340 343 343 343 343 343 343 343 342 341 340 340 340 339 338 338 338 337 337 337 336 334 336 336 336 334 333 334 335 336 336 335 335 335 334 334 335 335 335 335 334
302 294 290 287 285 289 287 291 291 286 293 292 295 293 294 297 291 290 296 295 296 296 297 300 305 299 296 297 297 304 316 322 323 324 332 332 334 335 336 337 337 338 339 340 341 341 342 344 344 344 344 344 343 344 345 343 334 338 340 340 340 341 341 340 340 339 338 339 338 336 335 334 332 334 335 336 336 334 333 332 336 336 334 334 335 335 335 335 334 333 334 334 334 334 334 333 332
298 295 291 291 289 288 290 288 284 289 292 291 293 290 295 295 291 296 295 297 298 297 298 302 302 298 299 299 306 305 310 322 323 327 330 331 332 334 336 336 336 336 337 338 340 341 342 342 343 343 343 344 343 342 343 344 335 332 336 337 338 339 338 338 336 335 333 332 332 332 329 331 329 331 326 332 330 334 332 330 332 335 336 334 334 334 334 333 333 333 333 333 334 333 332 331 330
298 297 292 287 290 289 291 289 288 293 290 290 289 293 297 296 294 293 293 295 299 297 296 300 301 308 299 300 303 310 313 321 323 328 330 330 331 331 334 334 334 334 336 337 339 340 341 341 342 342 342 343 343 342 342 342 340 330 333 331 333 335 335 335 334 327 325 324 326 323 325 334 334 334 334 334 324 334 324 325 332 335 335 334 334 333 333 332 332 332 331 332 331 329 326 326 326
300 294 289 290 287 288 290 291 290 293 292 294 291 292 296 294 294 298 296 296 294 295 298 297 302 308 309 312 313 314 314 323 325 328 329 329 330 329 331 332 332 331 333 335 337 339 340 341 342 341 341 342 342 341 341 341 340 335 342 342 342 338 332 329 333 337 330 334 322 330 333 331 331 332 333 328 332 332 331 324 329 334 335 333 334 332 332 331 331 331 331 330 328 324 320 323 322
293 288 290 292 287 291 292 290 291 292 296 292 291 290 294 295 294 296 296 294 292 298 297 295 299 301 307 313 312 314 319 323 325 329 328 328 329 329 330 331 332 332 331 333 335 337 339 340 341 340 341 341 341 341 341 341 340 339 340 340 340 332 335 336 337 334 334 333 333 332 329 330 330 330 330 329 330 323 330 324 328 330 331 330 333 333 332 331 330 330 328 326 323 318 319 320 320
293 293 291 287 291 292 290 289 292 291 291 291 292 291 292 294 294 295 297 293 293 295 294 296 296 299 302 309 312 317 320 323 325 328 328 328 330 330 330 331 331 332 333 333 334 337 339 339 340 341 340 341 340 340 340 340 339 339 339 339 338 338 336 336 335 334 333 332 331 331 329 328 329 330 324 323 324 332 329 323 324 325 327 327 327 331 330 330 328 326 322 319 317 318 318 317 318
295 293 289 293 289 295 293 289 291 289 291 292 291 290 293 293 292 295 292 295 294 293 292 299 298 298 300 309 313 318 320 321 322 324 327 329 330 332 332 332 333 334 335 336 335 335 337 338 339 339 340 340 340 339 339 339 338 339 338 338 338 338 336 335 334 333 332 331 330 330 329 327 327 328 329 330 330 330 331 330 329 328 327 326 321 323 322 320 319 317 317 315 317 317 317 317 318
294 293 291 291 289 294 292 288 289 288 288 290 289 294 294 292 293 291 293 294 293 294 298 295 298 299 303 310 313 318 320 321 322 322 325 327 328 329 331 333 334 335 335 334 334 335 337 338 339 339 340 340 340 340 339 338 338 338 338 338 338 337 336 334 333 332 330 330 330 328 326 326 326 327 328 329 329 330 329 328 326 325 324 322 320 319 317 317 315 315 315 314 314 314 314 314 315
296 292 288 289 290 293 291 290 289 288 290 290 290 294 292 293 293 288 292 295 294 293 294 293 294 296 307 313 315 318 319 321 322 322 324 325 326 328 330 331 332 332 333 334 335 335 336 337 338 338 338 339 339 340 340 338 337 338 339 338 338 336 336 334 332 332 331 330 329 327 327 326 325 326 327 328 328 328 328 326 324 322 321 319 318 317 315 314 314 313 313 313 312 313 312 313 313
290 293 289 291 288 292 288 291 287 286 290 290 291 291 293 291 294 290 290 295 293 292 290 291 290 309 313 313 314 318 319 321 322 324 325 325 326 327 329 330 331 333 333 333 335 336 335 336 338 338 337 338 338 340 339 338 337 338 338 337 337 335 335 334 333 332 331 329 328 328 326 326 325 325 326 327 327 327 326 325 322 320 319 317 316 316 314 312 312 312 312 312 312 312 312 312 312
292 292 290 289 288 291 288 286 286 286 288 289 289 293 293 289 292 290 292 294 294 292 298 300 306 309 310 312 314 317 318 320 321 323 323 323 324 325 324 326 329 333 332 333 334 335 336 336 337 337 337 337 338 339 338 338 337 337 338 337 337 333 336 335 335 332 330 329 328 327 326 325 324 325 325 326 326 326 325 324 321 318 316 314 314 313 313 311 311 311 312 312 312 312 311 311 311
290 292 289 289 291 289 289 288 287 288 290 289 292 291 290 289 290 292 295 292 290 289 298 302 305 307 308 311 314 316 317 318 319 319 321 321 319 322 324 326 328 330 332 333 334 335 336 336 336 336 336 337 337 338 338 338 337 337 337 337 337 335 336 336 336 333 331 329 328 327 326 325 324 324 324 325 324 325 324 323 321 317 314 313 313 313 312 311 311 311 311 311 311 311 311 310 311
289 289 290 291 290 290 290 291 289 288 291 288 293 290 291 291 291 291 291 291 287 296 299 300 303 305 307 309 312 314 315 316 317 319 316 317 318 320 323 324 326 329 332 332 333 334 335 336 336 336 336 335 337 336 337 337 337 337 337 337 337 336 337 337 335 334 332 330 328 327 326 325 324 324 323 324 324 324 323 322 321 317 313 311 312 312 311 311 310 310 310 310 310 310 310 309 310
290 290 290 289 287 290 289 289 289 290 293 288 291 290 290 291 291 292 292 291 289 294 296 300 299 302 306 307 309 311 312 313 314 314 317 317 319 320 320 322 325 327 329 330 332 335 335 336 337 337 337 336 335 336 335 336 337 337 337 338 336 337 336 337 336 335 331 332 329 327 326 325 324 323 323 323 324 323 322 321 320 317 314 310 309 309 309 309 309 308 308 309 309 309 307 307 308
290 292 290 289 286 293 289 292 290 289 293 290 289 292 290 291 291 291 288 288 290 292 294 292 298 300 299 302 305 307 311 311 310 313 316 318 320 321 321 323 324 325 328 330 331 333 334 335 336 336 337 336 335 336 336 336 336 337 337 337 337 336 336 336 336 335 334 333 330 328 326 325 324 323 323 322 323 323 322 321 320 318 315 310 308 308 307 307 307 307 307 306 306 306 306 306 305
290 289 287 288 287 287 290 288 289 291 292 289 289 288 285 284 289 290 290 287 289 292 291 291 292 293 294 294 301 306 307 308 310 313 316 316 317 319 320 322 322 324 326 328 329 330 332 334 335 337 336 335 334 336 336 336 336 337 336 337 337 336 336 335 335 337 334 333 332 330 327 325 323 324 323 322 322 322 322 321 320 319 316 311 309 307 306 307 306 306 305 306 305 305 305 304 303
291 288 286 284 286 285 288 289 289 292 290 288 290 287 285 283 282 290 286 287 291 292 292 290 288 289 290 292 294 299 304 308 311 313 314 315 316 317 318 320 320 322 322 323 326 328 330 331 333 334 334 336 334 334 334 336 336 336 336 336 337 337 336 335 335 336 335 334 333 331 329 326 324 324 324 322 321 321 321 321 320 320 317 312 308 306 306 307 307 307 306 306 305 307 307 304 305
283 288 286 283 284 285 285 288 287 291 292 288 289 286 288 290 289 286 285 287 289 292 291 291 289 290 289 289 291 293 296 300 305 309 312 313 314 315 316 317 319 320 321 322 323 325 326 329 331 332 333 335 335 335 335 336 336 336 336 331 336 336 336 336 335 335 336 335 333 331 330 327 325 325 324 323 322 321 320 320 321 321 317 313 309 307 307 306 307 308 306 307 305 306 305 304 304
282 286 281 285 283 282 285 291 286 289 291 290 289 287 283 290 290 287 287 287 288 290 288 288 288 289 290 291 291 292 294 295 295 298 304 310 313 314 315 316 317 318 320 320 320 320 323 325 327 329 331 332 334 335 335 335 336 336 336 335 336 336 336 336 336 336 336 335 334 333 331 328 326 326 325 324 324 322 320 320 320 321 318 315 311 308 307 307 307 307 306 306 307 306 304 303 302
287 282 283 281 283 283 284 286 288 289 290 290 289 288 285 288 288 286 287 290 290 290 291 290 290 291 292 291 291 291 292 294 295 297 297 300 308 312 315 314 316 316 317 318 319 319 320 322 324 326 329 331 332 333 334 334 334 335 335 335 333 335 335 335 336 336 336 336 336 334 332 330 327 326 326 325 324 323 322 321 320 319 318 315 310 308 307 307 307 307 305 306 306 305 304 302 300
284 284 283 285 282 281 282 285 288 289 288 289 287 287 290 292 292 293 292 289 290 291 293 293 293 293 293 293 292 293 293 293 296 297 297 296 298 303 309 312 314 315 315 316 317 318 318 319 320 321 324 328 330 331 332 333 332 331 331 333 333 335 336 336 335 334 335 336 336 335 333 331 329 328 326 325 324 324 322 321 319 318 316 316 313 309 308 305 305 306 306 305 306 306 304 302 299
286 286 285 282 284 284 283 282 283 288 288 288 286 289 289 290 291 293 293 289 289 291 289 290 291 292 292 292 293 293 294 295 297 297 297 296 297 298 301 305 309 312 313 314 314 316 316 317 318 319 321 324 327 328 330 330 330 329 328 327 326 328 332 332 334 335 335 333 333 335 334 333 331 329 328 326 326 324 322 321 320 318 316 315 314 310 308 304 303 304 305 305 304 303 303 300 298
286 283 281 282 282 282 282 283 286 285 288 287 286 286 286 289 291 293 294 292 290 290 291 292 292 292 293 293 293 293 293 295 297 296 295 296 296 296 297 299 302 305 308 311 312 314 316 316 316 316 319 321 323 325 326 327 326 327 327 327 327 329 329 330 331 333 334 334 334 333 332 332 331 329 327 327 325 321 322 321 320 318 317 315 314 312 309 306 306 305 306 304 302 300 299 298 298
287 283 284 282 283 284 286 288 287 286 289 285 281 284 288 289 291 291 292 289 291 293 292 292 293 293 293 293 293 294 294 294 294 296 296 295 295 295 294 296 297 299 301 306 309 311 314 315 315 317 317 319 321 324 325 326 328 327 326 326 326 327 328 327 328 329 330 332 333 333 333 334 333 330 326 328 325 325 323 321 320 317 315 315 315 314 312 307 305 303 303 303 303 301 299 297 297
282 284 282 283 283 282 284 285 286 286 288 284 282 286 289 291 292 292 291 292 293 291 291 293 293 293 293 293 293 293 293 294 293 292 292 293 293 293 293 295 296 298 299 302 306 308 310 313 315 316 316 318 319 322 324 324 326 327 327 325 326 325 325 327 328 325 326 329 329 330 330 332 333 331 329 326 327 326 325 324 322 320 317 315 315 314 313 309 306 304 303 302 300 301 300 297 297
282 282 284 282 282 286 285 286 287 285 286 287 285 285 289 289 287 288 289 290 290 289 289 290 290 292 293 294 293 293 293 293 293 292 293 292 291 291 291 292 295 296 297 299 302 305 308 311 313 314 315 316 318 319 320 323 323 323 322 319 320 322 321 318 321 322 324 325 327 328 331 332 333 332 332 331 329 328 326 323 322 320 318 316 316 315 311 308 305 304 303 304 303 299 297 296 298
283 283 282 282 284 284 283 285 284 283 284 283 284 285 286 282 283 283 286 283 284 285 284 285 287 289 291 291 290 292 292 293 293 293 293 292 291 292 293 292 292 295 297 299 301 304 306 309 311 313 314 315 317 317 318 319 318 317 313 312 313 314 314 316 318 319 321 322 325 325 328 330 331 331 332 331 328 327 326 324 322 321 319 317 315 314 312 310 306 305 303 302 302 302 299 297 296
286 284 284 284 284 285 284 284 284 280 285 282 283 283 279 280 282 282 284 284 287 286 286 287 288 287 287 287 289 289 289 291 292 294 293 292 292 292 292 292 293 294 296 298 300 303 305 307 309 311 312 313 315 315 317 317 319 319 315 315 315 314 315 313 316 319 319 319 321 326 325 325 325 326 326 328 329 327 327 325 324 323 321 319 316 315 315 312 308 305 304 303 303 304 304 298 295
284 286 285 283 285 285 284 284 283 281 281 284 281 282 277 281 284 285 282 282 286 287 285 286 287 289 289 289 290 289 288 289 288 288 289 290 292 292 294 294 295 294 296 295 296 300 303 305 308 310 312 312 313 314 315 316 317 318 318 318 319 317 317 317 318 319 322 322 322 322 323 322 323 324 324 324 326 326 327 326 324 324 322 321 318 317 316 314 311 309 306 304 305 303 303 299 297
284 284 283 285 285 285 284 284 284 281 281 285 280 279 279 280 284 283 282 283 286 287 285 288 290 290 291 292 292 291 290 287 287 287 288 289 290 292 295 295 295 296 295 295 298 299 303 304 306 308 309 310 311 312 313 316 317 316 316 317 318 318 318 318 317 317 315 316 318 320 320 320 320 321 322 322 323 324 324 326 326 325 324 322 317 316 316 315 313 310 307 305 306 304 303 303 302
283 283 284 285 285 282 282 282 280 280 282 282 279 284 281 278 282 283 282 286 285 285 285 288 290 290 291 293 293 293 292 288 286 288 292 293 295 295 294 295 295 294 294 296 297 299 300 301 303 304 306 308 307 310 312 313 316 316 315 316 315 316 316 316 309 308 313 311 313 314 316 318 318 318 318 319 320 321 320 322 323 324 322 321 317 318 318 316 312 309 306 305 305 306 305 305 305
285 283 283 282 282 281 281 280 282 280 278 274 280 281 278 278 279 281 281 285 285 283 285 287 288 289 291 293 292 292 293 292 290 287 288 291 294 293 292 292 295 295 293 294 295 297 298 300 302 303 304 305 305 307 310 311 312 312 313 313 313 314 312 308 304 308 307 305 309 309 312 314 315 315 316 316 317 318 319 319 319 320 321 320 315 318 318 317 314 312 309 307 306 306 305 304 304
285 283 287 284 281 280 278 278 277 277 274 275 278 278 279 276 281 281 285 286 282 283 286 287 288 288 290 290 290 291 291 292 292 291 292 292 292 291 290 295 294 295 294 295 296 296 297 299 300 302 301 301 302 305 307 308 309 310 313 312 312 313 311 310 306 305 303 303 305 307 308 310 312 313 314 315 315 316 316 315 317 318 319 316 316 317 316 316 315 314 312 309 307 305 305 304 303
285 283 280 285 282 279 278 272 275 272 269 270 276 277 278 276 277 284 283 283 282 288 289 290 290 289 289 289 289 289 289 289 290 291 293 292 295 295 294 296 295 294 295 296 295 295 296 297 298 300 297 297 299 301 303 305 307 308 309 310 310 311 311 309 309 309 306 306 306 307 306 306 306 308 309 310 311 313 313 315 315 316 317 317 317 316 316 317 316 314 313 310 308 307 306 305 304
284 283 286 280 273 270 274 269 275 273 269 278 277 278 278 279 281 283 284 285 284 283 286 286 289 290 289 290 289 289 288 287 289 291 292 293 294 294 295 295 295 296 296 294 294 293 294 295 297 300 301 297 298 297 300 302 303 305 306 307 308 309 308 308 308 308 308 307 307 306 305 305 305 305 306 307 310 311 312 312 313 314 315 316 317 318 318 317 315 315 313 312 311 309 307 306 304
283 286 281 277 271 269 267 263 262 267 272 275 279 278 278 280 282 286 289 289 286 285 285 285 286 287 287 289 289 287 287 286 288 288 292 293 294 294 293 294 294 294 293 293 292 293 294 294 295 299 299 294 295 297 298 300 301 303 303 305 306 306 306 306 307 308 307 307 307 306 306 306 306 306 306 306 309 310 310 311 312 313 314 315 315 316 316 315 314 313 312 311 310 310 308 307 306
285 283 286 282 272 269 268 265 273 272 271 272 274 275 274 277 283 286 285 286 285 284 284 284 283 284 285 286 285 284 285 287 286 291 294 295 296 294 295 294 294 293 293 293 293 293 293 295 294 296 297 295 295 296 297 298 300 300 301 302 303 303 305 305 306 306 306 305 305 305 305 305 305 306 306 307 305 306 308 309 310 311 312 313 314 314 314 314 313 312 311 311 310 310 308 307 307
283 280 283 281 280 277 270 266 265 264 269 270 273 275 277 282 285 285 285 284 286 285 285 285 286 285 284 284 286 286 285 287 290 293 295 295 294 293 295 296 295 294 293 293 293 293 294 295 294 295 296 295 295 295 296 297 299 299 299 300 301 301 302 302 303 303 304 304 304 304 304 304 304 305 304 304 304 304 305 305 306 307 308 310 311 312 313 313 312 311 311 310 310 309 308 306 306
285 283 279 281 281 279 271 268 270 271 269 271 269 277 280 281 285 286 282 285 286 285 285 287 288 285 285 289 289 288 291 291 292 294 294 295 294 294 294 294 295 295 295 294 294 293 294 294 294 295 294 293 294 295 296 296 297 297 298 298 299 300 300 301 303 303 303 302 302 303 303 303 302 302 304 302 303 302 304 304 304 304 305 306 307 308 309 310 311 310 309 309 308 308 306 306 306
284 279 283 283 282 281 278 274 266 263 269 270 271 276 277 275 280 282 284 285 286 283 284 284 286 285 289 290 291 290 291 292 293 293 293 293 292 292 292 293 292 293 293 293 293 292 293 294 294 295 294 296 295 294 295 295 296 297 298 298 298 299 300 301 301 302 302 301 301 301 300 300 302 302 301 302 301 302 302 300 303 303 304 304 304 305 306 307 308 308 308 308 309 308 307 307 306
284 281 285 285 279 278 276 272 268 267 265 265 268 272 273 277 281 280 283 284 286 285 284 285 288 289 290 292 292 291 291 292 293 293 294 294 293 292 292 293 293 292 292 292 292 293 293 293 293 294 295 295 295 294 294 294 294 296 297 297 297 298 298 299 300 300 299 300 300 300 300 301 300 300 300 300 300 299 300 300 301 301 302 302 303 303 303 304 305 306 306 306 306 306 306 306 306
285 286 284 284 280 276 274 276 271 273 267 264 268 269 277 278 280 280 283 283 287 283 283 285 288 289 291 292 292 293 293 293 293 294 293 292 292 291 291 291 292 292 292 292 293 294 294 293 293 293 293 294 293 293 293 294 294 294 295 295 295 296 297 298 298 298 298 298 299 299 299 299 300 299 299 299 299 299 299 299 299 299 300 300 301 301 301 302 303 304 304 304 304 305 304 304 305
281 282 281 285 280 282 280 277 275 275 266 265 265 268 272 278 280 283 286 283 282 284 286 286 287 288 290 293 293 293 292 293 293 292 292 291 291 290 291 290 290 290 291 292 292 292 292 293 293 292 292 293 294 293 293 294 293 293 293 294 295 295 295 295 295 296 297 297 298 297 298 299 296 297 297 297 297 298 298 298 298 298 299 299 299 300 300 301 301 302 303 303 303 303 302 302 302
286 286 283 286 281 278 276 277 276 267 272 268 263 274 273 280 280 285 286 285 282 281 285 288 286 288 290 292 292 292 293 292 291 290 289 289 289 290 290 290 290 290 291 291 291 291 292 292 291 291 292 293 292 293 293 293 293 293 293 293 293 292 293 293 293 293 294 294 295 295 295 293 295 297 295 297 297 298 297 297 297 298 298 298 298 299 299 299 300 301 301 302 302 300 299 299 299
Wind_Speed
5 5 2 3 5 1 3 7 2 3 1 1 2 1 1 1 2 2 3 2 2 2 3 4 7 7 4 4 7 4 1 7 6 4 1 1 2 3 9 1 5 7 8 6 4 4 3 7 11 11 12 12 13 12 12 12 12 12 11 11 11 12 13 12 12 13 12 12 13 14 14 15 15 14 15 15 15 15 14 14 14 15 15 15 17 18 18 18 18 17 17 17 17 17 17 17 16
4 4 4 1 1 1 0 1 5 3 5 3 4 1 2 2 1 5 7 6 3 1 2 4 3 4 5 3 4 6 2 2 4 2 2 1 5 7 6 3 7 10 9 6 4 3 2 8 10 11 12 13 13 12 12 12 12 11 12 11 11 12 13 13 12 11 11 13 13 14 14 14 15 15 17 15 15 15 17 16 14 15 15 15 15 16 16 16 17 17 17 16 16 16 16 16 17
4 4 1 3 4 5 3 4 2 1 1 2 3 6 2 3 4 5 7 4 2 1 3 5 2 2 2 1 0 1 2 1 1 3 4 6 12 8 6 5 6 8 9 6 6 4 4 8 9 10 12 13 13 12 12 11 12 11 11 11 11 11 12 12 12 12 11 11 12 13 13 15 15 16 17 15 14 15 15 15 15 14 14 14 16 16 16 16 16 17 17 16 16 15 16 16 16
3 6 2 2 0 4 1 4 4 6 2 3 3 4 6 7 7 7 4 1 4 4 1 2 4 1 0 2 2 1 2 1 5 5 5 7 4 9 6 7 7 8 7 6 6 5 6 7 8 10 11 13 13 12 11 11 11 11 11 11 11 11 11 11 11 12 11 13 13 12 13 13 14 16 16 15 15 14 14 16 15 14 15 17 16 16 16 16 16 16 17 16 16 15 15 16 16
3 2 2 2 4 1 4 1 3 3 1 6 1 4 6 6 5 5 0 3 5 1 2 1 2 2 1 1 2 0 1 1 2 6 3 3 1 8 7 9 9 9 8 8 5 5 7 7 7 8 10 13 13 12 11 11 11 11 10 10 10 10 10 10 9 11 12 11 12 14 14 14 15 17 16 15 14 13 14 14 14 13 13 14 14 14 14 14 15 16 16 16 16 16 15 15 16
4 3 4 2 1 2 5 1 2 2 3 7 0 1 5 7 7 6 4 2 3 4 2 2 1 3 1 2 1 0 2 2 5 3 5 6 7 9 10 9 10 10 8 8 5 5 6 8 7 7 11 12 13 12 11 11 11 11 10 10 10 10 10 10 10 9 11 11 13 14 15 15 15 16 15 14 13 13 12 13 14 12 12 13 13 14 14 15 15 16 15 15 15 15 15 15 15
1 4 6 4 3 4 3 2 3 4 2 6 0 2 3 6 5 8 4 2 1 1 3 2 2 2 3 2 1 3 2 1 3 2 3 6 10 10 11 10 10 11 10 7 5 4 6 7 8 9 8 10 12 12 11 11 11 11 10 10 11 10 10 10 9 10 11 12 13 12 12 13 13 14 14 13 13 12 12 13 13 13 12 12 13 13 15 14 14 15 15 14 15 15 14 15 14
1 1 2 2 1 3 2 0 3 5 1 6 1 3 3 6 5 5 7 3 2 3 1 1 1 1 1 1 3 1 2 3 2 2 2 9 10 11 11 10 11 11 10 8 6 4 5 7 7 7 8 11 11 11 11 11 11 10 10 10 10 10 10 10 10 9 10 10 11 11 12 13 13 13 13 12 11 11 12 14 13 12 11 12 13 12 13 13 13 14 14 15 15 14 14 15 14
5 7 1 4 2 4 3 0 2 4 7 2 6 6 4 4 4 7 7 2 1 1 2 2 3 1 2 1 2 2 4 1 3 3 5 12 12 12 9 11 12 10 11 8 5 6 6 6 8 7 8 9 10 11 11 11 11 11 11 10 10 11 10 10 10 9 8 9 11 11 13 12 13 13 12 11 10 10 11 13 12 12 12 12 12 12 12 12 13 14 13 13 13 14 14 14 14
2 2 1 2 3 0 3 1 1 1 2 2 2 1 3 3 3 2 7 0 1 0 1 0 2 1 1 1 1 2 2 4 2 5 8 11 12 11 10 10 12 13 10 9 6 5 5 6 6 7 8 8 9 10 10 10 10 10 11 11 11 11 11 11 10 10 9 9 10 10 10 11 9 10 11 10 10 10 10 12 14 12 11 11 12 12 12 12 12 13 13 13 13 14 13 14 14
1 5 2 4 4 1 0 1 4 4 2 5 7 7 5 5 4 4 1 1 1 2 1 3 0 3 1 1 3 1 3 2 6 8 9 11 11 11 9 8 10 12 12 9 7 4 6 7 5 6 8 8 7 9 10 9 10 10 10 10 11 11 11 10 10 10 10 10 10 9 9 9 9 9 10 11 10 9 10 10 11 12 11 11 11 12 12 12 12 12 13 13 13 13 14 14 15
1 1 2 4 1 2 1 1 3 7 8 2 1 1 4 7 3 3 1 3 1 0 2 4 0 7 2 3 2 1 5 1 6 7 8 11 10 10 9 8 9 10 11 10 7 5 6 5 4 5 7 7 6 8 8 9 9 9 9 10 10 10 11 11 11 10 11 10 10 10 9 10 9 10 10 11 9 8 11 10 11 11 11 11 11 12 11 12 12 13 13 12 13 13 14 15 14
4 1 6 6 1 1 2 0 1 3 4 2 2 0 4 6 3 3 3 1 1 2 2 8 2 0 1 2 2 6 2 5 4 6 7 11 10 8 8 8 8 9 9 9 9 7 7 5 5 6 5 6 6 7 8 8 8 8 8 9 9 9 9 10 11 11 11 11 11 11 10 9 8 10 10 10 9 8 10 10 9 9 10 11 11 11 11 11 12 12 12 12 13 13 14 14 14
6 6 4 1 1 4 2 0 2 0 2 1 3 1 4 2 3 5 7 3 3 4 2 1 2 2 1 1 1 2 5 3 5 6 5 7 7 8 10 9 9 8 8 9 9 9 7 5 5 5 6 4 5 5 7 8 8 8 8 8 8 8 9 9 10 10 9 9 9 9 8 8 8 8 8 9 9 8 6 6 9 10 10 10 10 11 11 11 11 11 12 12 13 14 14 13 13
2 2 6 5 2 1 2 2 1 3 1 1 1 6 3 2 4 4 5 3 6 3 2 0 1 3 4 6 3 6 6 6 5 4 7 7 7 8 9 9 9 8 8 8 8 9 8 7 6 5 6 5 5 4 3 6 8 8 8 8 7 8 8 8 9 8 8 8 9 9 9 8 7 8 7 8 8 6 4 4 9 9 10 10 10 11 11 11 11 11 11 11 13 13 13 13 12
5 6 4 3 0 1 1 2 1 3 2 5 0 2 3 1 2 3 4 1 0 1 0 3 0 1 1 2 0 2 3 7 5 6 8 7 6 6 8 10 8 8 8 9 9 9 8 8 6 5 5 7 5 4 4 4 5 8 8 8 8 7 8 8 8 8 8 9 9 10 9 8 7 6 9 7 8 6 4 4 5 9 10 10 10 11 10 11 10 10 10 11 13 13 13 13 11
2 4 3 3 1 1 1 2 6 1 2 4 3 3 5 2 0 3 1 1 1 1 2 1 2 1 3 1 1 3 1 5 6 9 9 8 7 6 7 8 7 6 7 9 8 9 9 9 8 6 6 6 6 6 5 5 4 7 6 8 8 8 7 8 8 9 9 8 8 8 8 5 4 4 5 4 6 5 5 7 8 10 10 9 8 10 10 10 10 10 10 11 12 13 12 11 10
1 3 6 2 2 2 6 6 10 1 1 2 4 6 4 2 0 0 1 3 2 1 1 2 1 5 2 2 2 4 2 7 8 12 11 10 8 8 8 9 9 7 8 8 9 9 9 9 7 8 6 7 6 5 4 4 4 5 5 5 5 6 6 6 6 5 5 5 7 6 4 4 3 3 4 5 4 5 5 7 7 9 9 8 8 10 10 10 10 10 10 10 12 12 8 6 7
4 2 3 5 5 3 8 6 6 2 1 1 3 1 2 3 5 1 1 2 2 1 2 2 3 4 1 2 1 3 6 7 9 11 13 13 12 12 10 8 9 8 8 9 8 10 9 8 8 8 8 7 7 6 4 4 5 4 6 6 5 5 5 6 4 5 4 5 4 4 4 3 3 3 3 3 3 5 6 8 9 9 9 8 7 8 9 10 9 10 9 9 11 9 5 4 4
1 5 3 3 9 2 6 5 3 4 3 3 4 1 1 0 2 0 2 1 1 4 4 2 3 7 7 1 3 7 8 8 8 10 12 12 10 11 11 11 11 10 9 9 9 8 9 9 9 7 8 8 7 5 5 5 5 5 5 5 5 5 5 5 6 5 5 4 4 4 4 3 3 3 5 6 5 4 5 9 10 9 9 7 7 7 9 10 11 10 8 7 6 3 4 3 3
2 4 5 3 5 3 2 7 2 5 1 2 4 1 1 1 3 2 3 2 4 7 8 8 10 11 8 5 7 9 10 9 9 8 10 10 10 8 9 9 10 9 7 7 7 9 10 9 9 9 8 7 7 6 6 6 5 4 5 5 6 6 6 6 5 6 6 6 5 4 4 4 3 3 3 3 3 3 3 4 4 3 3 5 8 5 5 5 5 3 3 3 3 3 4 3 3
4 1 2 3 3 1 1 5 2 3 2 6 4 7 5 2 1 2 7 5 6 7 5 10 9 3 9 10 10 10 11 12 11 10 12 13 14 12 9 8 6 6 5 8 9 7 8 8 9 8 9 9 8 7 6 6 6 5 6 5 6 6 6 6 6 5 6 6 6 5 4 4 3 3 3 3 3 3 4 3 3 3 4 4 4 5 4 4 4 3 3 4 3 3 3 3 2
3 1 1 3 2 1 1 0 2 4 3 5 6 3 4 4 1 1 5 9 5 4 1 3 5 4 5 6 10 12 12 14 13 14 13 13 13 13 12 9 10 10 7 7 6 6 7 8 8 8 9 9 8 7 6 6 7 5 6 6 6 6 6 7 6 6 6 6 6 6 5 4 4 4 3 3 4 3 4 3 3 2 4 4 3 5 4 4 3 3 3 3 3 3 4 3 3
5 4 3 2 3 2 2 0 3 3 8 5 3 1 2 3 4 1 3 10 5 1 1 4 4 3 7 11 12 17 18 17 18 16 16 15 15 14 10 10 10 6 8 9 8 7 7 10 9 8 8 9 8 7 7 7 7 6 6 6 6 6 5 5 6 7 6 6 6 6 4 5 5 4 5 6 6 4 5 4 3 3 3 3 3 4 5 3 3 3 3 3 4 3 4 3 3
2 2 2 3 2 0 1 2 4 2 2 1 2 4 0 4 2 1 7 10 6 6 3 2 6 6 5 8 12 13 14 12 13 12 8 7 8 6 6 6 7 8 11 11 9 9 10 8 8 10 8 9 8 7 7 6 7 8 6 6 7 6 6 5 7 5 5 6 7 7 5 5 4 4 6 7 6 6 6 6 4 3 3 3 3 3 4 4 4 3 3 4 3 4 3 3 3
2 1 5 4 2 1 1 3 4 2 2 1 4 0 2 3 1 4 10 6 4 7 2 3 6 6 7 9 12 13 15 16 11 10 12 8 6 9 11 10 9 11 12 9 9 9 8 9 10 11 10 9 8 8 7 6 7 7 8 7 6 6 6 6 6 6 5 5 7 8 6 5 5 6 5 7 7 6 6 6 4 4 4 4 4 5 4 4 4 4 4 4 4 4 4 3 3
4 5 4 7 0 0 3 3 2 1 2 0 2 1 0 1 2 7 1 2 7 0 1 0 4 8 8 7 9 10 13 15 13 8 3 7 8 10 11 9 12 14 9 12 11 9 9 9 10 10 10 9 8 9 8 8 6 8 7 6 7 6 7 6 6 6 5 5 5 6 6 5 5 4 5 7 6 6 6 6 6 3 4 4 4 4 4 4 3 4 5 5 4 4 3 3 3
5 10 5 7 3 4 1 3 3 0 1 1 3 2 1 2 2 7 3 4 4 3 1 1 3 5 5 6 7 7 7 6 5 6 12 11 12 12 12 12 14 11 11 13 9 7 9 12 10 11 11 9 9 9 8 8 8 7 7 6 7 7 7 7 6 6 7 5 6 6 6 6 5 5 5 6 8 7 7 7 7 5 4 4 3 3 4 4 3 3 2 1 2 3 3 3 1
4 4 4 2 4 1 7 2 2 1 0 1 1 1 1 1 6 5 6 5 4 1 2 2 4 5 5 5 5 6 8 6 6 8 13 13 10 9 13 12 10 12 10 8 8 8 11 10 9 10 10 11 12 11 8 8 8 7 7 7 5 8 8 7 7 7 8 7 6 7 6 6 6 6 6 6 7 9 8 7 7 6 5 5 4 5 4 3 3 4 3 3 3 3 3 3 2
3 7 5 3 2 1 2 1 2 1 0 2 0 3 6 8 12 8 4 7 5 2 3 4 4 5 6 5 6 7 6 6 9 12 11 10 9 9 12 10 10 10 9 8 8 12 9 6 6 6 9 10 11 11 11 9 8 7 7 8 6 5 7 9 9 7 6 8 8 9 8 8 7 6 6 6 6 6 8 8 8 5 5 6 5 5 5 5 5 4 5 5 5 4 5 4 4
7 1 5 2 4 3 2 1 2 4 1 2 1 3 7 6 5 1 3 3 2 4 6 5 4 5 5 6 6 8 9 9 12 11 10 10 9 8 10 8 10 10 7 8 13 13 10 10 7 7 8 10 9 9 10 11 10 8 7 7 9 8 5 7 9 9 8 8 8 10 11 10 10 10 8 7 7 6 6 8 9 7 6 6 6 5 5 4 4 5 6 5 4 3 3 4 4
3 6 1 1 5 3 5 1 1 4 1 4 4 2 8 9 10 6 4 3 2 5 6 7 7 6 5 6 7 8 10 8 11 12 11 11 9 10 10 12 10 10 12 12 10 10 12 12 10 10 9 11 11 10 9 9 9 9 9 8 7 8 8 7 6 9 7 6 9 10 12 12 12 11 11 10 9 9 7 6 6 7 10 9 7 7 6 7 7 5 5 5 7 5 5 5 3
5 1 1 2 1 3 3 0 1 1 1 3 2 6 3 3 2 1 2 5 3 1 5 6 7 8 7 7 7 8 8 9 9 12 12 11 11 11 10 11 11 13 11 10 11 11 12 12 12 13 13 13 11 11 10 9 9 8 7 8 11 12 12 11 8 5 7 10 8 6 8 9 10 12 13 13 11 10 9 10 8 8 6 7 8 8 7 7 8 6 6 6 5 5 6 5 4
2 3 3 3 4 2 2 2 1 2 2 4 2 2 6 4 7 7 5 1 2 5 6 7 7 7 8 7 7 7 8 9 11 11 13 12 10 12 10 9 10 10 10 10 10 11 13 11 11 13 12 12 11 10 9 8 7 10 10 7 6 7 8 8 9 10 9 7 6 9 12 12 11 8 7 6 5 6 8 7 5 7 6 6 5 7 8 7 7 8 8 6 6 6 7 6 5
8 3 3 0 0 2 2 2 1 0 2 4 1 3 11 12 11 10 6 2 1 7 7 7 9 8 8 7 7 8 8 9 13 7 6 7 10 11 10 10 10 10 9 10 10 10 9 9 9 11 11 11 11 10 9 8 5 4 5 9 10 10 8 7 5 5 6 8 10 8 7 8 9 12 13 12 9 8 9 10 9 8 6 7 6 6 6 6 7 7 7 7 4 3 3 4 5
9 8 6 4 5 4 3 5 3 0 1 2 3 7 8 9 11 11 6 1 3 7 5 8 9 9 9 8 8 8 8 12 8 5 6 6 7 8 10 9 10 10 9 9 10 10 10 10 9 9 10 10 8 8 8 8 8 8 7 4 5 7 8 10 11 10 6 5 5 7 9 11 12 13 14 15 14 13 11 10 11 9 11 9 7 7 6 5 8 9 8 7 6 4 3 5 6
6 5 5 3 4 1 3 3 2 0 1 4 4 5 6 12 12 12 12 1 5 7 10 10 9 9 9 9 9 9 9 12 2 4 5 6 7 7 6 6 7 8 9 10 11 12 12 11 10 12 9 8 9 9 9 9 10 10 9 10 11 8 6 5 6 8 9 8 7 6 7 6 5 7 8 9 9 7 7 6 5 7 7 10 11 11 11 10 8 5 3 4 8 7 3 4 5
7 6 5 1 2 2 1 0 2 2 1 2 2 3 10 13 12 12 9 3 11 11 10 11 12 10 9 9 10 10 9 2 3 5 6 5 6 4 3 5 5 8 9 9 12 12 9 8 11 10 7 9 10 11 9 9 10 10 9 10 10 9 8 7 6 5 6 7 10 10 8 8 8 7 7 7 9 10 10 8 9 9 9 9 10 11 12 11 11 10 9 6 6 9 7 7 7
4 6 4 3 4 3 2 1 2 3 2 5 2 3 10 11 11 11 8 10 8 5 6 7 5 8 8 9 9 8 6 7 3 6 6 7 7 7 5 4 6 8 4 9 9 8 9 9 10 8 7 9 9 9 9 10 8 7 8 5 6 5 4 5 5 3 3 6 6 6 6 6 7 7 7 7 8 10 11 11 11 10 12 11 10 11 11 12 9 11 11 9 7 3 3 4 8
7 6 6 5 2 4 2 3 0 3 1 1 1 4 11 8 7 12 11 7 7 5 7 9 6 10 12 12 6 6 8 7 7 8 9 6 7 8 7 6 6 5 6 5 6 8 7 7 7 7 7 8 8 9 10 7 6 4 4 3 1 3 4 3 3 3 3 5 7 7 7 8 7 6 8 10 9 8 10 10 10 10 10 11 11 10 10 11 9 8 8 8 9 8 7 9 11
1 4 4 4 3 3 2 3 1 0 1 2 0 3 8 4 5 5 1 3 4 5 6 6 7 8 9 9 9 8 12 9 9 10 8 5 6 7 7 6 5 5 5 6 6 7 6 8 8 9 8 9 8 9 10 7 6 4 4 3 3 3 2 2 3 5 7 8 8 8 12 10 11 11 10 9 8 8 8 9 9 10 10 9 9 9 9 11 12 11 11 11 11 11 9 6 8
1 4 6 5 5 7 0 2 4 3 1 3 2 3 3 4 7 9 9 8 8 2 5 7 7 5 4 7 8 6 7 6 9 10 6 6 7 8 7 6 5 5 5 5 5 5 6 6 7 7 7 7 8 9 9 8 8 8 6 6 6 4 6 5 9 11 9 8 10 9 7 7 8 8 7 8 9 9 8 8 10 10 11 11 11 12 12 11 12 12 13 12 13 13 8 5 4
3 4 5 4 8 8 7 4 3 1 1 2 2 3 4 6 6 5 4 8 11 7 3 7 6 6 5 6 6 7 8 8 6 6 7 7 6 4 4 3 2 2 4 4 3 5 5 6 7 8 8 7 7 8 9 8 8 8 10 10 9 9 9 9 8 6 8 7 6 7 7 6 7 8 7 6 6 7 8 7 9 9 8 9 10 11 11 13 11 16 15 13 14 11 8 10 11
5 1 6 8 9 8 6 6 2 1 1 1 4 3 1 5 8 5 5 6 9 9 8 7 6 6 6 6 6 6 6 6 6 6 5 5 5 4 3 4 3 3 3 2 1 3 6 7 7 8 6 7 7 8 9 9 10 9 9 10 9 9 11 11 9 8 6 5 7 8 6 6 6 6 6 6 7 6 7 7 7 7 8 8 7 9 10 9 8 7 10 13 11 12 14 15 15
2 2 4 6 7 5 7 6 5 1 1 5 2 2 0 4 8 4 4 3 6 8 7 6 6 6 5 5 6 6 5 4 4 2 2 3 3 4 3 4 5 4 3 3 1 4 5 5 6 6 7 7 6 8 9 8 8 9 9 9 9 9 9 8 4 4 6 5 7 5 6 6 6 6 6 6 5 6 6 6 6 6 5 6 9 11 11 10 12 12 11 10 12 12 13 15 12
1 5 8 8 8 7 5 5 5 1 2 5 3 3 3 7 7 6 3 1 8 7 3 4 3 4 4 5 6 6 5 5 2 3 4 3 3 3 3 2 4 4 3 2 3 4 4 5 6 6 6 6 6 7 8 8 8 7 8 9 11 9 7 5 2 4 4 2 5 6 6 6 6 6 6 6 6 5 6 6 6 6 6 5 6 6 8 11 13 13 15 16 16 16 12 12 13
10 4 9 7 8 5 4 7 3 3 1 6 3 4 1 4 5 6 3 3 4 3 2 2 3 3 3 3 3 6 6 6 5 5 2 2 2 2 2 6 4 5 5 5 5 5 4 5 6 5 5 3 4 6 7 8 8 8 9 9 10 10 8 6 5 5 3 3 5 6 6 7 5 6 6 6 6 6 6 5 6 7 6 5 5 5 6 6 6 8 8 9 10 11 9 10 11
5 3 5 8 5 6 5 5 5 2 5 3 2 2 1 6 4 3 7 5 4 3 4 1 1 4 4 4 5 6 6 6 6 5 4 4 4 5 5 7 6 5 5 6 5 4 5 4 5 5 2 1 2 3 4 5 6 6 7 7 8 8 7 6 7 7 6 8 7 7 5 4 5 5 4 4 5 7 7 7 7 7 7 7 7 4 5 6 6 7 8 10 11 13 13 12 12
5 7 8 8 1 4 2 2 2 5 5 1 3 1 1 8 9 3 6 7 5 8 6 4 1 5 6 5 5 5 5 6 5 4 3 3 5 5 6 4 5 6 5 5 4 3 3 4 4 4 1 1 1 1 3 4 4 6 6 6 7 5 5 6 7 7 6 7 6 6 5 6 6 5 6 7 8 8 7 8 7 8 8 8 9 9 8 7 6 6 8 10 11 13 13 13 12
4 10 8 7 2 2 3 3 1 5 5 4 1 1 3 4 9 11 14 11 6 6 8 6 3 6 8 8 6 8 7 5 4 3 1 2 3 3 2 3 3 3 3 3 2 3 3 3 3 2 2 1 1 1 2 3 5 5 4 5 5 5 6 6 6 7 6 6 5 6 6 6 6 7 7 8 8 8 7 8 8 8 8 8 8 9 8 8 7 7 7 9 10 11 10 12 13
6 1 7 8 7 6 4 3 4 5 5 3 4 1 6 4 3 1 7 7 6 5 5 3 4 6 8 9 6 6 5 3 3 1 2 3 2 1 2 4 5 5 5 5 5 4 4 4 2 2 1 2 1 3 3 4 5 5 4 4 5 4 5 5 5 5 5 6 5 5 6 5 6 7 7 6 5 7 8 7 9 8 8 8 8 8 8 8 7 7 8 8 8 8 9 11 12
0 3 4 5 6 5 2 3 3 1 0 1 1 5 4 4 1 6 4 5 8 5 5 2 4 4 1 5 4 3 3 2 1 2 3 2 1 2 5 7 7 6 6 5 6 4 5 4 3 1 1 1 2 3 4 4 4 4 4 6 6 5 5 4 5 5 5 5 5 5 6 6 6 6 6 6 7 6 7 7 7 8 9 8 8 8 8 7 7 8 8 8 10 7 8 11 11
4 4 3 3 2 11 7 2 1 1 4 5 1 7 6 8 8 4 1 1 4 2 2 1 4 0 1 1 1 0 0 1 1 4 3 4 4 6 6 6 6 6 7 7 6 5 4 4 3 3 2 1 2 3 3 3 3 2 4 5 5 5 5 7 7 7 7 4 4 5 6 6 6 6 6 5 7 7 7 8 8 8 10 10 9 10 9 8 8 8 8 8 10 6 7 9 9
9 2 7 2 2 6 5 3 2 4 3 7 2 7 5 2 6 4 1 3 6 4 2 2 3 1 4 2 3 3 3 3 2 1 0 3 4 5 5 5 5 6 5 6 6 4 3 4 4 4 3 3 3 3 3 3 3 3 5 6 5 5 5 6 6 7 5 4 5 5 5 5 7 6 5 5 5 6 6 6 7 7 7 7 8 8 8 9 9 9 10 10 9 8 9 9 10
3 3 4 6 2 2 2 5 1 1 2 4 3 3 5 6 7 2 3 7 7 6 1 2 4 3 4 4 3 2 2 2 4 4 5 6 7 7 7 6 4 4 3 4 4 4 5 5 5 4 5 4 5 4 3 3 1 2 3 5 6 6 6 6 5 5 4 5 6 5 6 6 6 5 5 6 6 6 7 7 7 8 7 8 8 8 8 8 8 9 9 9 9 8 9 10 9
2 3 4 1 3 2 4 6 3 5 4 2 6 3 6 7 7 5 4 9 10 4 3 5 6 6 6 6 6 6 6 5 5 7 6 6 6 6 6 7 7 7 7 6 6 5 8 7 7 7 5 3 4 5 4 3 3 2 3 4 6 6 5 5 5 4 5 5 6 6 6 6 7 5 6 6 6 7 7 7 7 8 8 8 8 8 8 8 8 9 9 9 8 9 10 11 10
2 2 3 1 1 2 5 2 3 4 5 6 2 4 4 7 8 7 8 6 5 8 9 6 5 5 5 7 9 6 5 5 5 5 5 6 5 6 7 6 5 5 5 7 8 8 7 7 9 8 9 9 8 6 5 4 2 2 2 4 5 5 5 4 3 3 4 5 5 5 5 6 3 6 5 6 7 7 7 8 8 8 9 9 9 8 8 8 9 10 10 10 9 9 11 10 9
9 11 12 12 10 5 5 6 3 2 3 4 5 9 6 10 3 9 8 7 2 6 8 9 5 6 7 6 5 5 5 4 4 4 4 4 5 5 5 6 6 8 9 9 8 7 9 9 7 9 9 9 9 9 7 6 4 3 3 3 5 4 3 3 3 3 4 5 5 5 6 4 6 7 5 6 7 6 6 7 8 9 8 9 9 9 8 8 9 11 11 9 9 9 11 11 9
Wind_Direction
26 29 2 64 61 110 51 6 159 324 57 210 312 144 174 360 227 101 198 38 144 231 189 93 135 149 184 205 195 187 252 128 203 128 206 227 268 202 171 333 149 129 133 147 150 160 181 141 130 135 138 131 123 120 116 111 110 109 106 105 101 99 98 101 107 107 104 89 87 90 94 94 92 92 94 93 94 96 94 91 88 88 87 87 83 82 84 84 89 85 82 80 75 79 82 83 83
48 11 34 34 27 29 224 134 95 348 41 37 239 100 238 265 90 211 169 179 199 146 253 118 119 87 74 44 121 132 82 298 184 75 72 184 136 157 173 191 156 143 142 142 140 138 119 137 138 143 142 133 127 124 118 116 114 113 112 110 107 101 101 103 105 100 94 92 96 97 96 99 102 101 96 94 97 96 94 92 93 89 88 89 94 94 92 91 91 91 87 84 85 85 86 87 87
31 25 41 27 35 72 92 30 273 22 89 267 275 208 5 149 199 226 205 191 221 219 130 88 106 36 343 213 239 19 185 66 178 259 105 138 135 188 190 170 158 138 139 140 138 129 122 140 143 147 144 136 130 127 125 122 118 116 113 111 110 109 106 105 101 99 99 91 94 101 101 105 106 105 101 99 99 99 99 101 92 92 91 92 94 93 91 88 88 87 88 87 87 87 85 86 88
69 29 141 70 194 27 55 31 84 124 134 203 311 265 188 177 225 207 234 216 136 116 18 128 152 220 121 335 263 95 43 333 199 153 135 165 178 154 167 160 148 137 135 140 138 135 138 142 149 149 150 139 135 130 126 121 120 116 114 114 112 111 107 105 109 111 111 103 98 95 99 104 107 104 101 103 104 107 102 89 87 85 90 97 99 94 91 87 84 86 89 91 89 90 90 89 88
68 11 80 103 111 18 102 100 132 83 182 195 106 260 239 203 188 192 125 189 197 119 64 141 90 353 121 96 70 268 158 156 173 232 131 147 94 148 147 150 145 141 143 151 142 142 146 143 149 155 152 142 138 132 129 129 126 122 119 118 116 111 108 109 104 96 95 98 105 101 98 95 102 102 100 101 103 103 100 102 100 98 101 101 97 94 93 94 91 88 88 92 92 91 91 90 88
63 49 3 81 60 162 74 74 47 189 216 153 329 269 232 216 156 198 122 151 230 190 192 133 175 193 123 314 197 11 195 98 170 211 158 178 156 148 150 145 145 146 150 152 146 144 147 151 150 159 152 145 139 136 133 133 131 128 126 123 121 118 115 114 110 106 107 111 94 95 103 104 100 100 103 103 105 109 110 101 99 101 100 100 99 97 96 92 89 90 91 93 92 90 93 91 88
230 48 360 44 35 51 167 137 235 200 279 165 211 275 251 212 204 134 119 118 263 104 142 198 100 91 89 293 16 246 209 278 133 192 192 146 147 150 150 148 146 148 154 154 137 122 153 154 160 159 153 149 141 138 139 137 135 133 132 129 126 123 119 116 111 105 109 112 111 107 103 103 102 101 105 104 106 109 108 106 95 89 96 99 103 102 99 96 92 92 96 97 98 95 91 92 91
58 114 333 102 331 45 52 132 249 182 45 178 202 261 284 229 173 154 167 126 215 194 203 231 14 118 248 85 163 225 332 202 239 290 263 142 146 149 151 148 149 150 157 155 142 151 169 162 162 156 162 152 146 144 143 140 140 139 137 134 130 126 124 119 113 110 110 111 108 110 109 107 106 104 105 108 111 112 108 103 101 106 103 94 80 88 92 94 96 95 96 96 94 95 94 94 93
5 85 264 72 63 34 67 137 274 237 292 272 276 218 299 200 191 137 168 231 318 220 294 213 183 138 219 63 153 291 296 309 314 260 170 147 149 151 150 152 150 153 159 155 152 159 166 166 163 161 161 156 151 150 147 145 144 144 141 137 134 130 127 123 119 114 111 109 114 115 111 109 109 108 104 108 115 119 116 112 109 107 104 105 103 102 102 101 99 97 97 98 97 96 97 96 94
50 53 237 117 133 333 9 290 56 166 248 244 253 269 180 197 160 131 151 152 202 75 256 305 188 138 127 149 329 294 142 341 283 128 157 149 149 152 148 153 154 153 157 157 165 156 160 159 161 158 163 162 156 153 148 150 147 146 145 141 138 133 129 127 123 120 114 107 104 105 112 118 116 110 108 110 119 122 119 114 116 110 105 104 103 103 102 100 97 98 95 97 100 98 96 98 95
21 17 135 78 30 53 355 277 266 310 272 321 287 235 217 138 116 104 81 210 33 163 305 168 121 139 97 259 207 280 312 329 153 158 159 151 150 155 149 151 153 157 159 161 166 150 162 166 157 156 163 166 159 156 149 153 153 152 148 146 140 136 132 130 128 123 120 115 111 108 103 101 103 107 113 113 117 121 116 106 102 108 111 104 104 105 102 100 100 100 99 99 99 100 100 102 103
49 18 7 104 129 136 249 164 292 285 293 322 132 255 198 141 111 127 194 155 221 248 172 165 252 148 94 327 270 279 324 224 189 153 158 150 152 154 149 148 151 158 158 158 160 151 161 157 161 163 167 167 167 159 154 155 158 155 152 147 143 140 137 134 131 129 126 125 122 118 116 113 114 114 115 117 118 121 122 119 111 113 113 110 106 108 105 105 102 99 99 102 102 104 104 100 95
112 89 88 83 171 141 182 46 276 304 335 280 151 360 134 118 178 184 166 107 45 96 285 208 128 49 226 180 265 314 215 206 192 156 153 153 149 145 145 147 151 156 159 160 163 172 164 167 162 172 171 169 172 161 159 157 160 156 156 150 146 143 141 138 137 135 132 131 130 129 126 120 118 122 121 122 126 129 126 116 120 116 108 112 108 109 112 107 103 103 105 106 106 99 93 91 91
116 180 127 132 26 117 145 228 325 120 282 232 278 108 189 131 230 172 132 145 213 168 236 169 133 148 115 29 267 300 238 190 160 161 144 132 135 141 150 151 153 153 162 165 169 175 169 173 160 168 175 179 173 163 163 163 161 158 156 150 148 144 143 142 139 139 137 131 124 116 114 117 122 121 119 125 131 128 89 110 110 116 116 114 112 108 105 106 106 108 110 108 102 95 92 89 90
120 160 83 116 52 108 244 78 209 139 241 176 154 138 188 271 104 128 169 158 250 213 323 216 180 125 233 152 266 208 198 173 155 154 131 127 131 141 149 154 156 159 166 169 171 175 180 179 159 164 178 182 180 163 161 170 164 160 154 151 148 146 143 140 139 134 127 122 120 122 120 116 108 100 102 106 109 109 126 106 121 128 128 122 113 109 109 108 111 113 110 109 99 96 96 93 90
137 97 79 102 360 128 214 144 162 100 261 179 348 271 130 22 183 121 250 162 269 324 248 191 87 207 285 135 204 270 226 145 149 137 122 130 132 136 145 157 161 168 172 175 174 185 179 182 162 170 172 187 182 179 169 166 170 163 157 153 151 150 145 140 136 129 118 120 121 119 116 115 105 98 98 97 100 118 106 77 92 109 109 118 115 118 117 116 116 116 113 108 98 97 93 90 89
111 79 63 41 148 198 212 162 155 157 241 252 286 207 157 207 217 252 149 122 134 231 344 247 185 67 191 169 182 313 282 148 144 135 133 139 144 149 152 161 167 171 182 184 187 184 187 190 168 178 174 176 186 183 180 170 170 164 159 155 154 152 148 142 132 122 117 115 118 117 117 110 106 106 104 95 99 114 116 86 98 111 118 118 119 122 121 119 122 122 118 111 97 88 82 73 70
63 80 114 87 203 136 196 169 192 193 105 199 182 218 128 201 111 171 106 38 47 329 280 304 304 253 242 268 285 291 264 159 155 146 153 153 158 160 168 174 173 186 187 190 194 191 191 194 182 174 180 179 176 180 182 178 172 170 157 154 154 150 144 131 129 126 122 118 121 121 118 123 117 112 111 110 106 120 121 92 106 119 108 102 117 125 124 123 121 124 118 112 96 91 74 88 80
92 134 91 196 191 237 158 196 186 121 292 183 196 198 176 201 141 239 118 288 5 190 281 2 317 292 274 292 333 212 167 165 167 163 161 167 172 175 176 170 183 182 192 193 195 193 195 191 196 174 184 186 170 173 180 175 170 170 170 164 158 151 139 140 132 131 129 132 125 122 126 127 124 119 115 110 108 115 106 98 113 114 114 111 123 129 126 125 125 118 117 101 93 84 80 80 84
233 116 142 241 205 213 211 167 182 196 137 114 143 191 141 181 152 250 193 175 35 220 219 296 266 247 220 241 141 170 170 169 177 173 175 176 185 181 178 182 185 192 189 191 192 191 192 196 196 189 185 187 175 175 174 171 172 172 171 166 161 161 160 151 151 141 146 140 134 136 132 127 127 127 108 106 111 113 101 105 110 104 98 104 101 108 112 113 115 104 93 79 81 72 85 84 85
217 81 155 220 186 133 220 192 212 198 149 146 128 102 146 252 208 157 171 127 256 262 233 193 212 225 204 179 168 168 171 171 180 184 189 188 192 194 197 191 189 186 185 175 185 189 192 192 192 201 194 190 183 179 180 179 171 172 174 175 169 172 170 168 162 160 156 152 146 135 133 130 130 130 130 126 119 114 106 111 108 102 101 94 99 86 89 81 87 97 95 77 77 81 87 83 91
106 145 182 152 144 84 188 192 175 136 120 113 138 127 208 89 72 129 153 180 230 210 246 217 231 234 163 171 178 172 174 177 181 185 193 193 192 196 194 195 184 186 160 185 193 190 193 194 189 192 195 202 193 186 187 176 174 186 176 179 174 175 176 173 174 168 161 162 156 147 130 131 134 135 140 134 129 127 120 117 110 113 111 105 112 103 102 103 97 116 111 99 88 82 78 83 76
135 318 113 169 197 117 322 158 193 137 124 140 148 202 99 145 185 252 183 208 228 223 198 230 244 207 174 142 157 175 179 187 189 194 191 195 200 203 199 195 192 196 190 195 183 191 188 195 192 182 195 198 201 186 177 174 187 191 183 180 179 177 174 178 181 180 175 164 158 155 146 148 144 150 148 147 147 142 129 128 127 124 121 120 120 119 109 108 116 121 116 103 105 102 96 93 94
104 173 149 182 172 71 249 248 141 127 132 185 202 23 132 141 202 127 220 241 223 217 251 259 264 141 146 151 178 179 186 188 197 198 195 198 197 199 197 198 202 195 201 205 203 200 188 196 192 187 192 193 199 192 190 187 187 195 193 175 190 178 172 178 181 185 173 174 169 169 160 155 157 158 165 169 165 160 146 144 130 130 121 121 127 123 123 126 129 126 122 116 118 114 116 112 113
103 120 184 135 107 241 20 88 106 151 145 9 120 138 252 177 180 81 250 251 262 280 356 95 112 135 162 169 179 192 195 202 207 208 208 214 204 198 215 215 210 198 207 204 205 203 203 190 186 194 190 191 197 194 197 189 187 196 196 189 195 170 185 182 185 162 175 176 180 176 169 158 165 166 169 175 167 171 160 154 149 141 137 135 138 132 138 141 145 150 143 139 136 135 131 130 127
171 138 121 131 91 346 88 70 65 66 108 71 98 12 319 244 226 244 243 266 283 292 344 119 125 144 183 194 188 187 195 203 201 203 209 197 185 197 214 212 210 212 211 202 201 205 201 194 189 195 191 189 194 193 200 197 191 193 200 196 198 173 188 187 176 178 169 169 184 185 179 171 172 172 169 175 172 172 167 159 155 151 154 152 155 152 161 155 155 156 150 148 150 147 144 141 143
130 96 92 105 27 107 7 139 21 339 108 11 150 264 180 306 69 278 309 245 326 136 126 24 163 187 199 195 201 206 201 206 203 193 186 206 208 207 213 209 214 219 206 212 210 205 201 188 193 191 191 188 188 199 199 205 196 198 199 194 190 189 187 185 182 183 173 175 170 174 175 179 170 174 169 175 176 173 172 170 174 156 161 172 168 156 160 167 164 166 166 160 159 151 139 141 157
94 133 105 44 0 78 41 85 29 58 62 75 146 168 323 316 106 231 234 348 314 158 199 246 239 238 220 217 211 214 224 221 195 182 206 197 210 208 206 205 213 212 210 214 208 200 205 207 201 193 189 187 192 196 196 202 204 201 197 197 195 189 181 191 189 180 186 181 172 172 174 175 173 171 174 177 184 180 183 184 178 176 176 168 170 154 158 164 163 141 119 93 118 133 135 144 145
159 134 97 320 15 63 8 92 337 348 144 70 165 93 284 159 223 250 258 314 14 114 247 264 252 264 276 267 247 225 224 215 211 213 218 216 214 208 215 213 208 209 219 211 206 205 212 206 202 205 196 194 201 207 202 204 201 198 196 203 196 187 188 191 199 193 184 181 172 177 179 171 174 176 181 183 185 190 188 183 186 188 174 167 166 160 142 142 142 142 132 136 132 135 137 137 128
113 39 119 50 19 1 346 313 349 107 216 27 281 263 264 260 253 276 303 339 336 331 289 272 262 264 274 269 252 254 248 218 224 226 223 224 220 214 223 214 209 213 208 205 204 215 211 212 200 191 191 198 201 204 200 203 206 200 195 197 196 192 191 191 198 197 189 185 180 186 186 180 181 180 177 187 189 184 188 188 191 187 177 165 161 159 166 167 161 154 156 158 166 170 169 164 159
133 202 53 134 119 249 316 22 310 140 326 16 115 215 276 272 281 307 335 338 259 277 279 291 288 284 261 255 252 247 245 223 233 239 240 234 231 228 228 218 210 210 196 199 208 210 203 212 206 214 196 201 194 204 201 199 197 204 199 196 197 199 204 200 189 195 192 190 189 187 188 189 191 193 188 182 188 193 194 189 188 188 173 172 162 169 163 170 175 177 165 160 155 182 177 174 173
26 90 263 334 157 263 301 72 12 168 4 40 91 287 248 264 272 278 308 9 148 241 282 293 293 279 262 251 249 251 248 231 243 247 242 240 231 231 223 224 211 208 207 207 208 200 210 208 207 214 206 209 204 205 205 201 193 197 205 203 199 200 204 207 204 191 192 199 193 190 192 189 190 194 192 190 190 193 197 213 206 183 175 172 176 172 171 174 179 185 187 163 161 184 180 191 193
352 78 224 168 116 236 348 289 38 334 127 10 155 223 332 317 256 289 312 62 66 20 292 289 291 280 273 246 236 246 266 259 248 242 239 229 230 227 226 224 214 215 213 207 203 201 211 207 205 211 211 210 209 203 206 211 200 198 205 205 208 201 202 206 206 215 205 188 189 206 199 198 199 195 194 193 194 193 195 201 198 197 186 178 169 170 181 182 174 172 181 196 186 166 183 179 183
238 20 137 211 157 204 244 307 337 16 112 201 18 205 229 237 278 291 293 268 323 310 283 280 273 272 267 272 257 250 243 255 250 238 236 225 232 226 230 228 224 217 218 214 209 203 211 204 206 210 213 212 212 210 204 205 211 208 210 209 205 209 210 209 208 198 200 215 215 200 188 188 192 202 217 219 227 215 207 199 182 178 181 197 185 180 192 179 180 175 176 188 188 169 179 174 180
191 153 88 125 68 201 226 142 216 17 28 176 334 263 271 272 283 282 271 220 236 262 264 277 281 277 276 264 268 258 253 250 250 242 246 230 230 234 229 228 225 220 215 210 209 211 208 206 207 212 213 210 209 209 210 211 201 196 206 214 218 225 221 209 199 221 221 208 200 193 189 193 193 195 197 196 198 201 202 198 188 183 178 188 194 196 187 183 181 184 181 175 180 202 174 148 129
165 165 170 144 149 212 209 242 278 167 161 232 206 224 261 285 284 287 290 166 203 263 285 281 270 266 268 261 258 255 252 256 261 263 239 232 222 219 220 217 221 219 213 205 209 207 210 208 206 211 211 207 204 203 200 208 213 222 218 208 226 221 222 219 210 207 192 209 231 220 198 196 199 200 199 199 202 202 199 199 199 172 173 173 185 200 206 195 201 190 189 169 161 142 123 142 137
119 78 94 159 162 285 279 282 278 359 102 242 234 268 274 274 269 273 279 302 284 270 268 261 260 262 259 259 251 251 246 249 279 270 272 246 245 238 235 219 222 220 218 209 207 211 208 206 194 213 202 190 195 198 199 197 203 204 217 228 233 225 219 218 215 219 214 214 207 212 215 212 215 215 206 193 202 200 203 201 206 211 200 187 186 193 190 186 185 198 198 181 168 156 147 146 143
131 130 136 182 184 164 212 130 352 327 146 294 43 324 272 262 273 269 275 315 270 253 251 254 256 253 259 256 261 250 252 320 308 295 284 285 265 269 277 227 201 207 221 205 211 214 208 200 204 209 167 188 198 199 199 202 204 204 199 210 216 225 231 225 223 207 218 224 222 214 214 213 200 185 196 206 196 190 196 197 195 191 186 194 199 201 193 181 175 175 164 161 206 188 169 168 162
55 136 144 110 255 237 300 316 323 333 98 264 28 325 274 269 262 268 252 249 249 236 219 240 245 269 264 259 254 268 285 276 280 268 277 275 298 304 288 244 228 228 216 203 217 203 200 202 210 192 184 187 198 196 195 208 205 205 205 209 201 215 217 214 222 207 193 204 209 220 213 211 203 180 174 197 202 199 204 208 209 203 198 195 200 202 195 192 181 181 177 178 160 173 117 170 184
112 96 103 193 239 139 239 267 360 358 93 312 242 308 281 280 278 262 264 237 265 270 264 265 240 252 255 258 275 291 284 276 275 263 268 293 299 291 298 280 250 240 237 234 205 206 201 207 198 184 186 187 190 196 201 203 199 197 195 167 162 182 198 209 210 231 218 227 233 222 234 229 229 230 202 200 206 212 207 205 201 194 198 200 208 205 193 194 184 179 180 187 164 163 190 198 197
354 128 132 134 156 229 149 187 142 309 20 61 76 283 297 322 327 324 330 333 307 289 328 286 259 239 263 291 290 253 262 268 271 271 263 277 295 292 291 284 306 259 235 220 200 197 195 198 190 184 182 187 189 188 191 176 156 146 113 68 72 72 41 141 185 221 217 223 231 229 236 236 240 241 240 225 210 214 214 211 199 197 192 192 194 200 197 198 195 194 186 184 187 190 194 189 193
64 229 171 188 172 136 204 78 117 24 325 4 42 323 311 303 286 244 285 343 322 302 338 297 296 296 296 287 280 289 267 243 241 257 280 277 279 292 295 299 276 263 261 242 212 202 186 181 176 179 178 182 187 185 177 169 175 167 149 158 175 183 200 185 205 211 212 205 212 221 222 214 219 225 225 226 209 200 200 199 201 199 198 193 193 201 202 193 190 186 190 194 203 214 215 174 196
122 249 161 139 141 126 125 124 78 76 150 355 7 173 266 325 314 283 325 322 295 315 316 292 308 318 320 292 290 287 281 285 277 282 273 279 279 296 297 306 302 265 260 270 256 204 184 175 177 177 178 181 177 175 172 170 175 184 188 195 199 201 210 220 220 223 219 221 222 221 219 213 215 220 221 212 218 208 206 206 208 211 206 204 199 204 204 202 199 203 196 196 203 196 174 194 200
213 245 131 112 115 134 161 122 119 165 255 268 51 97 213 305 287 276 312 319 303 315 322 324 336 340 332 323 311 301 286 265 270 285 283 257 265 252 282 306 322 330 292 312 182 169 172 177 169 175 173 172 178 170 175 181 184 189 191 201 204 209 213 223 209 218 218 216 214 222 218 216 215 223 227 223 217 215 212 218 219 214 202 195 192 211 209 205 202 202 199 199 200 199 201 209 213
223 218 152 131 139 138 117 98 105 116 27 277 336 347 295 256 267 309 359 326 303 302 306 314 329 332 329 335 341 334 318 278 236 268 329 339 332 318 300 327 337 356 23 42 160 176 166 157 159 157 167 169 173 173 173 188 189 188 194 199 212 221 221 228 199 209 212 210 222 225 227 225 219 221 226 229 226 224 221 225 228 228 216 216 194 199 200 197 199 193 194 199 206 209 210 215 211
252 131 92 95 88 75 97 102 84 358 77 269 209 11 204 279 273 323 338 276 269 261 270 288 284 292 313 344 348 349 1 19 13 248 271 297 308 308 283 264 22 19 338 48 65 93 115 130 141 152 166 172 167 174 178 186 189 181 196 204 213 222 221 230 153 198 214 191 221 223 225 228 225 227 228 231 232 227 230 224 229 233 228 212 203 219 217 204 195 196 199 203 207 211 210 213 215
131 132 86 50 42 39 39 62 88 69 330 250 264 307 163 302 268 229 142 210 206 214 296 285 294 310 318 321 340 356 1 357 1 343 335 315 291 313 334 72 36 27 33 55 59 69 94 118 139 145 163 148 164 175 178 186 192 193 203 206 213 222 219 213 204 224 190 203 225 229 223 228 229 232 231 238 239 247 246 242 241 242 242 244 228 209 209 212 218 214 210 209 217 217 217 213 222
124 104 129 83 6 12 30 347 33 120 263 261 277 287 323 181 291 303 237 287 235 173 166 165 312 314 309 319 330 344 351 347 337 2 9 7 40 35 47 56 41 38 51 49 49 51 69 86 111 111 57 81 137 164 183 198 197 212 220 216 220 226 220 214 222 231 206 219 226 231 228 236 241 245 254 251 239 236 237 238 238 245 244 239 240 224 214 212 207 199 199 200 210 213 215 212 217
83 95 95 114 220 34 280 9 242 206 199 238 333 190 5 238 231 244 288 266 256 225 207 201 239 304 320 318 338 345 322 332 341 340 5 40 64 59 62 51 52 47 45 27 23 30 52 82 115 130 147 37 56 45 185 227 218 224 222 227 235 231 223 220 228 232 218 218 222 229 219 229 233 236 234 234 238 232 231 237 237 237 239 238 242 244 244 226 211 210 209 210 212 213 212 211 214
116 140 146 115 122 97 217 272 282 313 289 271 288 288 261 253 281 241 240 246 218 220 225 234 237 278 298 300 333 336 322 310 309 299 316 75 78 66 67 94 96 93 69 46 27 58 55 85 93 123 104 32 102 119 222 238 240 244 240 238 240 229 231 221 227 232 231 224 213 222 215 219 227 230 231 229 232 235 232 233 237 241 241 244 240 239 236 232 219 217 217 219 218 219 212 214 221
205 34 146 173 139 156 203 192 191 212 198 282 275 89 233 126 243 212 219 253 272 249 250 232 236 249 266 293 308 294 305 323 314 322 70 74 63 101 125 132 123 106 94 68 54 35 57 62 68 89 4 343 142 199 179 215 243 254 250 245 247 230 237 233 231 225 234 228 223 227 228 225 220 225 219 237 231 228 234 236 237 238 241 240 238 236 231 225 219 222 224 225 227 220 217 217 223
9 165 76 96 214 134 128 204 143 153 146 21 249 217 190 180 267 271 235 285 277 279 284 261 246 237 284 303 326 330 315 301 321 56 64 40 27 60 62 52 49 61 70 78 59 44 59 55 73 122 170 261 239 215 213 207 224 227 240 242 233 224 233 240 250 235 234 223 233 217 234 224 227 231 231 227 228 216 224 232 237 238 241 243 241 238 236 232 226 229 233 228 235 213 217 219 226
220 104 192 206 107 98 102 58 2 91 43 253 163 315 287 296 312 275 326 341 270 335 329 329 274 59 25 38 6 304 287 263 154 96 78 68 61 47 47 50 44 40 40 37 27 17 37 45 56 23 337 296 251 234 234 218 231 245 263 255 251 236 223 228 236 242 236 225 220 228 228 233 231 227 236 223 237 222 220 216 222 228 230 233 236 238 238 239 237 238 242 240 244 221 220 229 228
103 176 218 170 138 126 127 189 349 62 178 264 101 221 286 33 263 336 347 185 258 277 287 268 264 38 88 101 123 178 192 205 173 171 113 61 62 57 40 46 48 49 43 31 27 1 47 51 39 19 347 341 313 271 270 258 282 314 302 291 273 249 241 242 240 250 250 243 238 231 235 241 231 228 220 228 228 237 235 240 244 248 245 241 237 239 236 236 237 240 241 243 243 236 237 237 235
140 200 182 114 202 217 308 93 214 185 260 267 301 286 272 196 242 351 237 205 234 236 254 201 184 117 133 138 156 219 234 143 113 97 66 43 35 25 24 23 9 30 35 49 39 59 64 48 37 36 344 318 310 308 295 316 6 300 285 277 272 264 248 247 248 248 246 235 243 237 231 234 247 235 226 229 225 230 232 236 238 246 244 238 238 240 234 237 234 242 243 246 243 236 238 241 238
23 87 85 316 101 153 129 198 175 124 239 67 290 52 240 204 220 197 247 210 214 147 162 195 188 163 158 154 161 165 161 134 99 70 50 39 27 24 24 18 16 10 13 14 24 32 38 31 36 26 29 11 348 354 333 331 300 220 260 268 264 250 247 241 235 233 240 237 247 244 244 247 243 232 228 231 234 231 233 236 235 241 244 244 242 240 235 234 236 239 242 242 238 233 238 240 243
64 114 171 116 39 230 102 27 125 184 173 185 208 315 274 255 215 199 220 217 205 169 176 206 185 181 180 166 158 161 153 113 89 74 56 35 25 19 19 16 11 8 22 23 25 24 19 24 28 25 22 9 8 6 7 2 348 274 220 255 265 259 258 244 250 241 249 256 258 253 252 254 272 247 232 240 234 238 239 238 243 240 240 241 240 241 234 233 236 243 243 244 244 237 239 242 240
172 166 185 173 131 134 160 245 36 97 123 221 137 249 269 269 179 202 218 242 191 214 179 177 174 176 174 177 174 152 132 101 83 70 58 51 36 25 17 21 24 29 20 19 7 17 23 26 20 17 17 18 358 350 352 340 335 334 356 312 294 289 300 323 313 303 278 279 273 265 263 276 252 261 231 247 246 245 240 242 242 246 244 242 243 243 235 228 237 243 245 242 245 240 243 246 241